(71185) = 2001 CG35 = 1999 XS220

Discovered at Socorro on 1999-12-14 by LINEAR.

Orbit

Orbit type: Main Belt

Note: WebGL enabled browser required.

epoch2024-03-31.0
epoch JD2460400.5
perihelion date2021-11-18.57281
perihelion JD2459537.07281
argument of perihelion (°)317.78089
ascending node (°)75.42294
inclination (°)15.83910
eccentricity0.0276038
perihelion distance (AU)2.6271975
Tisserand w.r.t. Jupiter3.3
ΔV w.r.t. Earth (km/sec)11.3
semimajor axis (AU)2.7017768
mean anomaly (°)191.62641
mean daily motion (°/day)0.22193700
aphelion distance (AU)2.776
period (years)4.44
P-vector [x]0.81203563
P-vector [y]0.58127639
P-vector [z]0.05211418
Q-vector [x]-0.52040602
Q-vector [y]0.68078633
Q-vector [z]0.51546828
absolute magnitude14.99
phase slope0.15
uncertainty0
referenceMPEC 2024-F28
observations used985
oppositions18
arc length (days)8917
first opposition used1999
last opposition used2024
residual rms (arc-secs)0.71
perturbers coarse indicatorM-v
perturbers precise indicator003Ek
first observation date used1999-10-19.0
last observation date used2024-03-18.0
computer nameMPCLINUX
JD of orbit computation2456819.593779
perihelion JD uncertainty (days)5.3544E-04
argument of perihelion uncertainty (°)1.2300E-04
ascending node uncertainty (°)2.6054E-05
inclination uncertainty (°)6.1762E-06
eccentricity uncertainty 7.3810E-08
perihelion distance uncertainty (AU)1.9533E-07
Minimum Orbit Intersection Distances (in AU)
for orbit epoch: 2460400.5, reference: E2024-F28
Mercury2.26299
Venus1.91153
Earth1.65164
Mars1.09166
Jupiter2.39212
Saturn6.39665
Uranus15.7971
Neptune27.2196

Observations

991 total observations over interval: 1999 10 19.26445 – 2024 03 18.635885
These data are available for download (format description).

Date (UT) J2000 RA J2000 Dec Magn Location Ref
1999 10 19.26445 03 42 32.33 +06 23 22.2 18.6   704 – Lincoln Laboratory ETS, New Mexico MPS 16698
1999 10 19.27845 03 42 31.73 +06 23 22.8 18.9   704 – Lincoln Laboratory ETS, New Mexico MPS 16698
1999 10 19.29244 03 42 31.21 +06 23 21.2 18.9   704 – Lincoln Laboratory ETS, New Mexico MPS 16698
1999 10 19.32053 03 42 30.01 +06 23 21.5 18.8   704 – Lincoln Laboratory ETS, New Mexico MPS 16698
1999 11 05.32551 03 27 55.61 +06 28 59.9 18.7   704 – Lincoln Laboratory ETS, New Mexico MPS 16698
1999 11 05.34221 03 27 54.69 +06 29 01.2 19.1   704 – Lincoln Laboratory ETS, New Mexico MPS 16698
1999 11 05.35887 03 27 53.63 +06 29 02.5 19.3   704 – Lincoln Laboratory ETS, New Mexico MPS 16698
1999 11 05.37555 03 27 52.57 +06 29 03.2 19.2   704 – Lincoln Laboratory ETS, New Mexico MPS 16698
1999 11 05.39226 03 27 51.56 +06 29 04.4 18.8   704 – Lincoln Laboratory ETS, New Mexico MPS 16698
1999 11 16.18085 03 16 47.63 +06 45 10.6 18.7 R 703 – Catalina Sky Survey MPS 16698
1999 11 16.19321 03 16 46.83 +06 45 12.6 18.3 R 703 – Catalina Sky Survey MPS 16698
1999 11 16.20549 03 16 46.08 +06 45 13.9 17.6 R 703 – Catalina Sky Survey MPS 16698
1999 11 16.21781 03 16 45.32 +06 45 14.0 17.3 R 703 – Catalina Sky Survey MPS 16698
1999 12 04.26403 02 59 36.48 +07 41 29.6 18.6 R 699 – Lowell Observatory-LONEOS MPS 16698
1999 12 04.29459 02 59 34.96 +07 41 36.4   699 – Lowell Observatory-LONEOS MPS 16698
1999 12 04.32515 02 59 33.43 +07 41 45.9   699 – Lowell Observatory-LONEOS MPS 16698
1999 12 14.09061 02 52 45.10 +08 27 53.6 18.7   704 – Lincoln Laboratory ETS, New Mexico MPS 9160
1999 12 14.10555 02 52 44.62 +08 27 58.3 18.5   704 – Lincoln Laboratory ETS, New Mexico MPS 9160
1999 12 14.12048 02 52 44.14 +08 28 03.3 18.5   704 – Lincoln Laboratory ETS, New Mexico MPS 9160
1999 12 14.13537 02 52 43.57 +08 28 07.5 18.6   704 – Lincoln Laboratory ETS, New Mexico MPS 9160
1999 12 16.15016 02 51 37.27 +08 38 57.1 19.2   704 – Lincoln Laboratory ETS, New Mexico MPS 9160
1999 12 16.16504 02 51 36.81 +08 39 02.8 18.8   704 – Lincoln Laboratory ETS, New Mexico MPS 9160
1999 12 16.18017 02 51 36.30 +08 39 07.4 19.0   704 – Lincoln Laboratory ETS, New Mexico MPS 9160
1999 12 16.19518 02 51 35.77 +08 39 13.0 18.5   704 – Lincoln Laboratory ETS, New Mexico MPS 9160
2001 02 13.34065 11 11 49.84 +30 57 32.8 18.6   704 – Lincoln Laboratory ETS, New Mexico MPS 26954
2001 02 13.35495 11 11 49.09 +30 57 38.7 18.5   704 – Lincoln Laboratory ETS, New Mexico MPS 26954
2001 02 13.36921 11 11 48.35 +30 57 46.3 18.8   704 – Lincoln Laboratory ETS, New Mexico MPS 26954
2001 02 13.38336 11 11 47.73 +30 57 53.9 18.4   704 – Lincoln Laboratory ETS, New Mexico MPS 26954
2001 02 15.26878 11 10 16.60 +31 13 38.7 18.6   704 – Lincoln Laboratory ETS, New Mexico MPS 26954
2001 02 15.28311 11 10 15.94 +31 13 45.0 18.5   704 – Lincoln Laboratory ETS, New Mexico MPS 26954
2001 02 15.29701 11 10 15.19 +31 13 52.8 19.0   704 – Lincoln Laboratory ETS, New Mexico MPS 26954
2001 03 14.27097 10 45 20.98 +33 30 28.9 18.8   704 – Lincoln Laboratory ETS, New Mexico MPS 27771
2001 03 14.28476 10 45 20.18 +33 30 31.1 19.2   704 – Lincoln Laboratory ETS, New Mexico MPS 27771
2001 03 14.29765 10 45 19.46 +33 30 32.1 19.3   704 – Lincoln Laboratory ETS, New Mexico MPS 27771
2002 06 04.25385 16 46 49.49 -21 14 56.8 19.0   644 – Palomar Mountain/NEAT MPS 57008
2002 06 04.32010 16 46 45.22 -21 15 11.6 18.7   644 – Palomar Mountain/NEAT MPS 57008
2002 06 04.38528 16 46 40.99 -21 15 26.2 18.1   644 – Palomar Mountain/NEAT MPS 57008
2002 06 08.30761 16 42 35.81 -21 29 56.9 19.5   704 – Lincoln Laboratory ETS, New Mexico MPS 57008
2002 06 08.32165 16 42 34.93 -21 29 59.4 19.8   704 – Lincoln Laboratory ETS, New Mexico MPS 57008
2002 06 08.33606 16 42 33.86 -21 30 03.1 19.5   704 – Lincoln Laboratory ETS, New Mexico MPS 57008
2003 08 31.32713 00 57 20.36 -20 02 29.5 18.8   704 – Lincoln Laboratory ETS, New Mexico MPS 83950
2003 08 31.33904 00 57 20.00 -20 02 35.1 19.2   704 – Lincoln Laboratory ETS, New Mexico MPS 83950
2003 08 31.35075 00 57 19.71 -20 02 40.6 19.0   704 – Lincoln Laboratory ETS, New Mexico MPS 83950
2003 08 31.36303 00 57 19.35 -20 02 43.1 19.6   704 – Lincoln Laboratory ETS, New Mexico MPS 83950
2003 08 31.37476 00 57 18.91 -20 02 50.2 19.2   704 – Lincoln Laboratory ETS, New Mexico MPS 83950
2003 09 16.28743 00 46 43.95 -21 48 14.4 19.0   704 – Lincoln Laboratory ETS, New Mexico MPS 84470
2003 09 16.29952 00 46 43.19 -21 48 16.5 19.6   704 – Lincoln Laboratory ETS, New Mexico MPS 84470
2003 09 16.31170 00 46 42.59 -21 48 20.3 19.5   704 – Lincoln Laboratory ETS, New Mexico MPS 84470
2003 09 16.32366 00 46 41.96 -21 48 25.9 19.2   704 – Lincoln Laboratory ETS, New Mexico MPS 84470
2003 09 16.33581 00 46 41.42 -21 48 28.9 19.0   704 – Lincoln Laboratory ETS, New Mexico MPS 84470
2003 09 28.32352 00 36 01.95 -22 40 43.8 18.5 R 699 – Lowell Observatory-LONEOS MPS 86086
2003 09 28.33685 00 36 01.19 -22 40 47.1   699 – Lowell Observatory-LONEOS MPS 86086
2003 09 28.35015 00 36 00.50 -22 40 48.3   699 – Lowell Observatory-LONEOS MPS 86086
2003 09 28.36345 00 35 59.71 -22 40 50.6   699 – Lowell Observatory-LONEOS MPS 86086
2003 10 25.17471 00 13 34.80 -22 19 16.6 18.5 R 699 – Lowell Observatory-LONEOS MPS 89292
2003 10 25.18813 00 13 34.37 -22 19 12.7   699 – Lowell Observatory-LONEOS MPS 89293
2003 10 25.20146 00 13 33.76 -22 19 09.7   699 – Lowell Observatory-LONEOS MPS 89293
2003 10 25.21489 00 13 33.34 -22 19 03.3   699 – Lowell Observatory-LONEOS MPS 89293
2003 11 22.15171 00 05 45.22 -18 50 01.2 20.4 V 703 – Catalina Sky Survey MPS 92522
2003 11 22.16296 00 05 45.25 -18 49 53.4 19.6 V 703 – Catalina Sky Survey MPS 92522
2003 11 22.17426 00 05 45.23 -18 49 48.6 19.4 V 703 – Catalina Sky Survey MPS 92522
2003 11 22.18553 00 05 45.43 -18 49 41.3 19.7 V 703 – Catalina Sky Survey MPS 92522
2003 11 26.13537 00 06 16.03 -18 09 50.8 19.9   704 – Lincoln Laboratory ETS, New Mexico MPS 92522
2003 11 26.14779 00 06 16.07 -18 09 43.1 20.5   704 – Lincoln Laboratory ETS, New Mexico MPS 92522
2003 11 26.16021 00 06 16.32 -18 09 35.9 19.8   704 – Lincoln Laboratory ETS, New Mexico MPS 92522
2003 11 26.17265 00 06 16.35 -18 09 29.8 19.8   704 – Lincoln Laboratory ETS, New Mexico MPS 92522
2004 12 14.43087 07 50 44.76 +32 12 02.8 18.7 R 703 – Catalina Sky Survey MPS 122492
2004 12 14.43685 07 50 44.41 +32 12 05.9 18.9 R 703 – Catalina Sky Survey MPS 122492
2004 12 14.44288 07 50 44.24 +32 12 08.8 18.6 R 703 – Catalina Sky Survey MPS 122492
2004 12 14.44894 07 50 44.01 +32 12 12.2 18.5 R 703 – Catalina Sky Survey MPS 122492
2004 12 21.36706 07 45 41.19 +33 15 00.4 18.6 R 703 – Catalina Sky Survey MPS 123216
2004 12 21.37772 07 45 40.66 +33 15 05.9 18.5 R 703 – Catalina Sky Survey MPS 123216
2004 12 21.38840 07 45 40.11 +33 15 11.7 19.4 R 703 – Catalina Sky Survey MPS 123216
2004 12 21.39913 07 45 39.56 +33 15 17.0 18.9 R 703 – Catalina Sky Survey MPS 123216
2005 01 07.35893 07 28 46.47 +35 35 22.7 18.4 R 703 – Catalina Sky Survey MPS 123894
2005 01 07.36557 07 28 46.00 +35 35 25.3 18.2 R 703 – Catalina Sky Survey MPS 123894
2005 01 07.37202 07 28 45.60 +35 35 28.6 18.4 R 703 – Catalina Sky Survey MPS 123894
2005 01 07.37841 07 28 45.15 +35 35 31.6 18.3 R 703 – Catalina Sky Survey MPS 123894
2005 01 07.84365 07 28 14.46 +35 38 47.9 18.5 R 599 – Campo Imperatore-CINEOS MPS 124458
2005 01 07.85358 07 28 13.78 +35 38 52.3 18.7 R 599 – Campo Imperatore-CINEOS MPS 124458
2005 01 07.86354 07 28 13.11 +35 38 56.5 18.4 R 599 – Campo Imperatore-CINEOS MPS 124458
2005 01 07.87349 07 28 12.42 +35 39 00.9 18.4 R 599 – Campo Imperatore-CINEOS MPS 124458
2005 01 16.17826 07 18 55.09 +36 31 02.9 18.9 R 699 – Lowell Observatory-LONEOS MPS 125364
2005 01 16.20678 07 18 53.13 +36 31 13.4   699 – Lowell Observatory-LONEOS MPS 125364
2005 01 16.22811 07 18 51.63 +36 31 21.0   699 – Lowell Observatory-LONEOS MPS 125364
2005 01 16.24442 07 18 50.55 +36 31 25.4   699 – Lowell Observatory-LONEOS MPS 125364
2005 01 31.25124 07 03 53.97 +37 29 19.7 19.3   704 – Lincoln Laboratory ETS, New Mexico MPS 126229
2005 01 31.26351 07 03 53.30 +37 29 20.2 19.6   704 – Lincoln Laboratory ETS, New Mexico MPS 126229
